"Pseudo-MPEC" for ZTF02BI

Created 2019 Jan 12 19:19:06 UT using Find_Orb

Click here for an explanation of pseudo-MPECs

 
 Astrometry: 
     ZTF02BI  C2019 01 07.18903903 59 59.98 -23 23 36.9    ~180I 15.80RUNEOCPI41
     ZTF02BI  C2019 01 07.18938704 00 00.92 -23 23 57.6    ~180I 15.80RUNEOCPI41
     ZTF02BI  C2019 01 07.25835704 03 35.31 -24 35 40.2    ~180I 15.54gUNEOCPI41
     ZTF02BI  C2019 01 07.25870404 03 36.38 -24 35 58.4    ~180I 15.54gUNEOCPI41

Station data:
(I41) Palomar Mountain--ZTF  (N33.357340 W116.859780)  US/California. 1.2-m
   f/2.44 Oschin Schmidt + CCD.

Orbital elements:  ZTF02BI
   Perigee 2019 Jan 6.547214 +/- 35.5 TT = 13:07:59 (JD 2458490.047214)
Epoch 2019 Jan  7.0 TT = JDT 2458490.5                        AutoNEOCP
q 71479.3665 +/- 1.71e+7            (J2000 equator)
H   27.4  G 0.15                    Peri.  124.72400 +/- 60
                                    Node   219.78814 +/- 52
e   3.5292046 +/- 0.196             Incl.   49.76980 +/- 14
From 4 observations 2019 Jan. 7 (1.7 hr); mean residual 1".28
Residuals in arcseconds: 
190107 I41  1.5+  2.0-    190107 I41  .31-  .34-    
190107 I41  1.5-  2.0+    190107 I41  .32+  .33+    

Ephemerides (geocentric):
Date (UTC) HH   RA              Dec         delta   r     elong  mag " sig PA
---- -- -- --  -------------   -----------  ------ ------ -----  --- ---- ---
2019 01 12 19  05 04 48.101   -34 47 44.16  .01407 .98912 113.2 20.4  39d 169
2019 01 12 20  05 04 52.457   -34 48 15.41  .01416 .98915 113.2 20.4  39d 169
2019 01 12 21  05 04 56.768   -34 48 46.17  .01425 .98919 113.2 20.4  39d 169
2019 01 12 22  05 05 01.033   -34 49 16.44  .01434 .98922 113.2 20.5  39d 169
2019 01 12 23  05 05 05.255   -34 49 46.22  .01443 .98926 113.2 20.5  39d 169
2019 01 13 00  05 05 09.433   -34 50 15.54  .01452 .98929 113.2 20.5  39d 169
2019 01 13 01  05 05 13.569   -34 50 44.40  .01461 .98933 113.1 20.5  39d 169
2019 01 13 02  05 05 17.663   -34 51 12.80  .01471 .98936 113.1 20.5  39d 169
2019 01 13 03  05 05 21.716   -34 51 40.76  .01480 .98940 113.1 20.5  39d 169
2019 01 13 04  05 05 25.729   -34 52 08.28  .01489 .98943 113.1 20.5  39d 169
2019 01 13 05  05 05 29.703   -34 52 35.37  .01498 .98947 113.1 20.6  39d 169
2019 01 13 06  05 05 33.639   -34 53 02.04  .01507 .98950 113.1 20.6  39d 169
2019 01 13 07  05 05 37.537   -34 53 28.30  .01516 .98954 113.1 20.6  39d 169
2019 01 13 08  05 05 41.397   -34 53 54.15  .01525 .98957 113.0 20.6  39d 169
2019 01 13 09  05 05 45.221   -34 54 19.60  .01534 .98961 113.0 20.6  39d 169
2019 01 13 10  05 05 49.009   -34 54 44.66  .01543 .98964 113.0 20.6  39d 169
2019 01 13 11  05 05 52.763   -34 55 09.34  .01552 .98968 113.0 20.6  39d 169
2019 01 13 12  05 05 56.481   -34 55 33.63  .01562 .98971 113.0 20.7  39d 169
2019 01 13 13  05 06 00.166   -34 55 57.55  .01571 .98975 113.0 20.7  39d 169
2019 01 13 14  05 06 03.818   -34 56 21.11  .01580 .98978 113.0 20.7  39d 169
2019 01 13 15  05 06 07.437   -34 56 44.30  .01589 .98982 112.9 20.7  39d 169
2019 01 13 16  05 06 11.023   -34 57 07.15  .01598 .98985 112.9 20.7  39d 169
2019 01 13 17  05 06 14.579   -34 57 29.64  .01607 .98989 112.9 20.7  39d 169
2019 01 13 18  05 06 18.103   -34 57 51.79  .01616 .98992 112.9 20.7  39d 169
2019 01 13 19  05 06 21.597   -34 58 13.61  .01625 .98996 112.9 20.7  39d 169
2019 01 13 20  05 06 25.061   -34 58 35.09  .01634 .98999 112.9 20.8  39d 169
2019 01 13 21  05 06 28.496   -34 58 56.25  .01643 0.9900 112.9 20.8  39d 169
2019 01 13 22  05 06 31.901   -34 59 17.09  .01652 0.9901 112.8 20.8  39d 169
2019 01 13 23  05 06 35.279   -34 59 37.61  .01662 0.9901 112.8 20.8  39d 169
2019 01 14 00  05 06 38.628   -34 59 57.83  .01671 0.9901 112.8 20.8  39d 169
2019 01 14 01  05 06 41.950   -35 00 17.73  .01680 0.9902 112.8 20.8  39d 169
2019 01 14 02  05 06 45.245   -35 00 37.34  .01689 0.9902 112.8 20.8  39d 169
2019 01 14 03  05 06 48.514   -35 00 56.65  .01698 0.9902 112.8 20.8  39d 169
2019 01 14 04  05 06 51.757   -35 01 15.67  .01707 0.9903 112.8 20.9  39d 169
2019 01 14 05  05 06 54.974   -35 01 34.40  .01716 0.9903 112.7 20.9  39d 169
2019 01 14 06  05 06 58.165   -35 01 52.86  .01725 0.9903 112.7 20.9  39d 169
2019 01 14 07  05 07 01.332   -35 02 11.03  .01734 0.9904 112.7 20.9  39d 169
2019 01 14 08  05 07 04.475   -35 02 28.93  .01743 0.9904 112.7 20.9  39d 169
2019 01 14 09  05 07 07.594   -35 02 46.56  .01752 0.9904 112.7 20.9  39d 169
2019 01 14 10  05 07 10.689   -35 03 03.93  .01761 0.9905 112.7 20.9  39d 169
2019 01 14 11  05 07 13.760   -35 03 21.03  .01771 0.9905 112.7 20.9  39d 169
2019 01 14 12  05 07 16.809   -35 03 37.87  .01780 0.9905 112.6 20.9  39d 169
2019 01 14 13  05 07 19.836   -35 03 54.47  .01789 0.9906 112.6 21.0  39d 169
2019 01 14 14  05 07 22.840   -35 04 10.81  .01798 0.9906 112.6 21.0  39d 169
2019 01 14 15  05 07 25.823   -35 04 26.91  .01807 0.9906 112.6 21.0  39d 169
2019 01 14 16  05 07 28.784   -35 04 42.76  .01816 0.9907 112.6 21.0  39d 169
2019 01 14 17  05 07 31.724   -35 04 58.37  .01825 0.9907 112.6 21.0  39d 169
2019 01 14 18  05 07 34.644   -35 05 13.75  .01834 0.9907 112.6 21.0  39d 169